This is the latest recevied weather packets stored in our database for station/object KD8NVS-13. If no packets are shown the sender has not sent any weather packets the latest 10 day(s).
| Time | Temp. | Humidity | Pressure | Rain* | Wind** | Luminosity | Snow |
|---|---|---|---|---|---|---|---|
| 1778103774 | 13.89° C | 49% | 1002.8 hPa | 0 mm | - | 122 W/m² | - |
| 1778103473 | 13.89° C | 51% | 1002.5 hPa | 0 mm | - | 175 W/m² | - |
| 1778103169 | 13.89° C | 51% | 1002.5 hPa | 0 mm | - | 161 W/m² | - |
| 1778102867 | 13.89° C | 50% | 1002.5 hPa | 0 mm | - | 98 W/m² | - |
| 1778102562 | 13.89° C | 51% | 1002.5 hPa | 0 mm | - | 115 W/m² | - |
| 1778102257 | 14.44° C | 51% | 1002.5 hPa | 0 mm | - | 140 W/m² | - |
| 1778101954 | 14.44° C | 51% | 1002.5 hPa | 0 mm | - | 165 W/m² | - |
| 1778101651 | 14.44° C | 50% | 1002.5 hPa | 0 mm | - | 161 W/m² | - |
| 1778101343 | 14.44° C | 51% | 1002.5 hPa | 0 mm | - | 151 W/m² | - |
| 1778101040 | 14.44° C | 51% | 1002.5 hPa | 0 mm | - | 85 W/m² | - |
| 1778100735 | 14.44° C | 51% | 1002.1 hPa | 0 mm | - | 155 W/m² | - |
| 1778100432 | 14.44° C | 50% | 1002.1 hPa | 0 mm | - | 156 W/m² | - |
| 1778100129 | 15° C | 49% | 1002.5 hPa | 0 mm | - | 177 W/m² | - |
| 1778099828 | 15° C | 49% | 1002.5 hPa | 0 mm | - | 234 W/m² | - |
| 1778099524 | 15.56° C | 49% | 1002.1 hPa | 0 mm | - | 254 W/m² | - |
| 1778099222 | 15° C | 47% | 1001.8 hPa | 0 mm | - | 253 W/m² | - |
| 1778098917 | 15.56° C | 47% | 1002.1 hPa | 0 mm | - | 233 W/m² | - |
| 1778098615 | 15.56° C | 46% | 1002.1 hPa | 0 mm | - | 263 W/m² | - |
| 1778098311 | 15.56° C | 48% | 1002.1 hPa | 0 mm | - | 260 W/m² | - |
| 1778098008 | 15.56° C | 47% | 1002.1 hPa | 0 mm | - | 300 W/m² | - |
| 1778097705 | 15.56° C | 46% | 1002.1 hPa | 0 mm | - | 297 W/m² | - |
| 1778097401 | 15.56° C | 46% | 1002.1 hPa | 0 mm | - | 287 W/m² | - |
| 1778097098 | 16.11° C | 47% | 1002.1 hPa | 0 mm | - | 290 W/m² | - |
| 1778096795 | 15.56° C | 48% | 1002.1 hPa | 0 mm | - | 319 W/m² | - |
| 1778096491 | 16.11° C | 48% | 1002.1 hPa | 0 mm | - | 295 W/m² | - |
* Rain latest hour (hover to see other rain measurements)
** Current wind speed in m/s (hover to see current wind gust speed)